sat.trackr.live / text

‹ back to catalog

STARLINK-32336

NORAD 61004 · 2024-158Q

PAYLOAD ACTIVE UNKNOWN

§ Identity

Operator
Country
US
Launch date
2024-09-05
Launch site
AFETR
Launch vehicle
Mass (kg)
RCS (m²)

Purposes: comms

External: N2YO · Heavens-Above · Gunter

§ Orbital elements

Epoch: 2026-09-21T22:32:34.363968Z

Period
93.85 min
Inclination
53.1609°
Eccentricity
0.0001670
Mean motion
15.34389041 rev/d
Perigee alt
461.6 km
Apogee alt
463.9 km
Semi-major
6,840.9 km
B*
7.0380e-6
RAAN
230.7354°
Arg perigee
84.1914°
Mean anomaly
275.9279°
Rev number
11,574

§ Raw data

STARLINK-323361 61004U 24158Q   26264.93928662 -.00000139  00000+0  70380-5 0  99922 61004  53.1609 230.7354 0001670  84.1914 275.9279 15.34389041115749

JSON: /api/v1/satellites/61004 · /tle

For live sub-satellite position, see the globe view (requires WebGL).

§ Visibility from observer

Set your observer location to see the next 7 days of passes ≥ 10°. The values pass through the URL so the page stays shareable.

No JS? Fill the form by hand. The geolocation button needs JavaScript.